FW8396 Weather Reports


time (UTC)temp
F
wind
direction
speed
knots
gust
knots
rain 1hr
in
rain 24hr
in
rain mn
in
humidity
%
barometer
mb
20260505000041 78 103 3.5 7.0 0.00 0.00 0.00 70 1012.4
20260504234529 78 105 3.5 9.6 0.00 0.00 0.00 69 1012.6
20260504233031 78 220 2.6 11.3 0.00 0.00 0.00 69 1012.5
20260504231527 78 112 4.3 13.0 0.00 0.00 0.00 68 1012.8
20260504230039 78 131 4.3 11.3 0.00 0.00 0.00 68 1012.9
20260504224530 79 175 4.3 8.7 0.00 0.00 0.00 67 1013.1
20260504223029 79 111 2.6 9.6 0.00 0.00 0.00 67 1013.1
20260504221542 79 122 1.7 9.6 0.00 0.00 0.00 66 1013.3
20260504220033 80 155 2.6 7.8 0.00 0.00 0.00 64 1013.4
20260504214528 81 162 3.5 12.2 0.00 0.00 0.00 63 1013.4
20260504213033 81 167 2.6 12.2 0.00 0.00 0.00 61 1013.5
20260504211533 82 112 2.6 10.4 0.00 0.00 0.00 60 1013.8
20260504210031 83 97 2.6 11.3 0.00 0.00 0.00 58 1013.8
20260504204531 83 82 2.6 9.6 0.00 0.00 0.00 59 1014.0
20260504203043 82 163 1.7 9.6 0.00 0.00 0.00 58 1014.2
20260504201530 83 245 2.6 8.7 0.00 0.00 0.00 57 1014.5
20260504200027 83 123 3.5 9.6 0.00 0.00 0.00 56 1014.8
20260504194539 83 148 1.7 9.6 0.00 0.00 0.00 56 1014.8
20260504193030 82 109 2.6 8.7 0.00 0.00 0.00 56 1014.9
20260504191536 82 97 3.5 11.3 0.00 0.00 0.00 56 1015.0
20260504190030 83 162 2.6 8.7 0.00 0.00 0.00 55 1015.3
20260504184530 83 169 3.5 10.4 0.00 0.00 0.00 55 1015.4
20260504183030 82 103 2.6 12.2 0.00 0.00 0.00 56 1015.3
20260504181530 82 184 2.6 8.7 0.00 0.00 0.00 55 1015.7
20260504180030 81 192 3.5 13.0 0.00 0.00 0.00 56 1015.9
20260504174528 81 169 1.7 10.4 0.00 0.00 0.00 57 1016.1
20260504173034 80 153 2.6 11.3 0.00 0.00 0.00 58 1016.2
20260504171534 80 96 2.6 8.7 0.00 0.00 0.00 58 1016.4
20260504081529 63 0 0.0 0.0 0.00 0.00 0.00 74 1018.1
20260504044529 67 0 0.0 2.6 0.00 0.00 0.00 63 1020.3
20260504043028 67 136 0.0 2.6 0.00 0.00 0.00 62 1020.3
20260504041529 68 0 0.0 1.7 0.00 0.00 0.00 61 1020.5
20260504040054 68 145 0.0 2.6 0.00 0.00 0.00 60 1020.5
20260504034530 69 0 0.9 5.2 0.00 0.00 0.00 59 1020.7
20260504033028 69 188 0.9 7.8 0.00 0.00 0.00 58 1020.5
20260504031529 70 142 1.7 7.8 0.00 0.00 0.00 57 1020.4
20260504030030 70 127 1.7 7.0 0.00 0.00 0.00 57 1020.2
20260504024528 70 126 1.7 4.3 0.00 0.00 0.00 58 1020.3
20260504023029 71 173 0.9 5.2 0.00 0.00 0.00 57 1020.3
20260504021529 71 161 2.6 7.0 0.00 0.00 0.00 56 1020.0
20260504020028 71 192 2.6 8.7 0.00 0.00 0.00 55 1020.2
20260504014530 72 185 1.7 9.6 0.00 0.00 0.00 54 1020.2
20260504013029 73 124 1.7 7.0 0.00 0.00 0.00 52 1020.0
20260504011528 73 93 1.7 7.0 0.00 0.00 0.00 51 1019.9
20260504010031 74 44 0.9 7.0 0.00 0.00 0.00 50 1019.7
20260504004541 74 139 0.9 6.1 0.00 0.00 0.00 49 1019.7
20260504003027 75 125 2.6 8.7 0.00 0.00 0.00 48 1019.6
20260504001531 76 175 1.7 7.8 0.00 0.00 0.00 46 1019.4